Location: Squirrel Cove
(50.1074°N, 124.9139°W)
Time: 00:46:13
(UTC-08:00)

BlueWalker 3 - Pass Details

Date: 02 December 2022
Orbit: 499 x 517 km, 53.2° (Epoch: 29 January)

Event Time Altitude Azimuth Distance (km) Brightness Sun altitude
Rises 19:03:24 0° 287° (WNW) 2,629 6.7 -25.3°
Reaches altitude 10° 19:05:37 10° 291° (WNW) 1,738 5.5 -25.7°
Enters shadow 19:08:13 38° 307° (NW) 796 3.2 -26.1°
